Weather History for Duluth, MN

Change the Weather History Date:

Thursday, November 1, 2012

  Actual Average Record
Temperature  
Mean Temperature 35 °F 36 °F  
Max Temperature 40 °F 44 °F 68 °F (1990)
Min Temperature 29 °F 29 °F 2 °F (1951)
Degree Days  
Heating Degree Days 30 29  
Month to date heating degree days 30 29  
Since 1 July heating degree days 1049 1154  
Cooling Degree Days 0 0  
Month to date cooling degree days 0 0  
Year to date cooling degree days 409 204  
Moisture  
Dew Point 26 °F    
Average Humidity 65    
Maximum Humidity 92    
Minimum Humidity 37    
Precipitation  
Precipitation T in 0.08 in 1.33 in (1991)
Month to date precipitation T 0.08  
Year to date precipitation 30.43 27.74  
Snow  
Snow T in 0.30 in 24.10 in (1991)
Month to date snowfall T 0.3  
Since 1 July snowfall 1.2 2.7  
Since 1 September snowfall 1.2 2.7  
Snow Depth 0.00 in    
Sea Level Pressure  
Sea Level Pressure 29.97 in    
Wind  
Wind Speed 12 mph (NNW)    
Max Wind Speed 21 mph    
Max Gust Speed 31 mph    
Visibility 10 miles    
Events Rain , Snow    
T = Trace of Precipitation, MM = Missing Value Source: NWS Daily Summary

Daily Weather History Graph

Daily Weather History Graph

Search for Another Location

Airport:

Trip Planner

Search our weather history database for the weather conditions in past years. The results will help you decide how hot, cold, wet, or windy it might be!

Date:

Astronomy

Nov. 01, 2012 Rise Set
Actual Time 7:51 AM CDT 5:52 PM CDT
Civil Twilight 7:20 AM CDT 6:23 PM CDT
Nautical Twilight 6:44 AM CDT 6:59 PM CDT
Astronomical Twilight 6:08 AM CDT 7:35 PM CDT
Moon 7:41 PM CDT (11/1) 10:33 AM CDT (11/1)
Length of Visible Light 11h 03m
Length of Day
10h 00m
Waning Gibbous, 93% of the Moon is Illuminated
Nov 1
Waning Gibbous
Nov 6
Last Quarter
Nov 13
New
Nov 20
First Quarter
Nov 28
Full

Hourly Weather History & Observations

Time (CDT) Temp. Windchill Dew Point Humidity Pressure Visibility Wind Dir Wind Speed Gust Speed Precip Events Conditions
12:55 AM 39.9 °F 33.9 °F 15.1 °F 36% 29.91 in 10.0 mi NW 9.2 mph - N/A   Overcast
1:55 AM 37.9 °F 31.5 °F 19.9 °F 48% 29.91 in 10.0 mi NNW 9.2 mph - N/A   Mostly Cloudy
2:28 AM 37.4 °F 29.8 °F 24.8 °F 60% 29.88 in 10.0 mi NNW 11.5 mph - N/A   Mostly Cloudy
2:55 AM 37.9 °F 29.6 °F 25.0 °F 60% 29.92 in 10.0 mi NNW 13.8 mph - N/A   Overcast
3:55 AM 37.0 °F 30.4 °F 28.0 °F 70% 29.92 in 10.0 mi NW 9.2 mph 19.6 mph N/A   Overcast
4:12 AM 37.4 °F 29.3 °F 28.4 °F 70% 29.88 in 10.0 mi NNW 12.7 mph - N/A   Overcast
4:47 AM 35.6 °F 28.0 °F 28.4 °F 75% 29.89 in 10.0 mi NNW 10.4 mph - N/A   Overcast
4:55 AM 36.0 °F 27.5 °F 28.9 °F 76% 29.93 in 10.0 mi NNW 12.7 mph 18.4 mph N/A   Overcast
5:07 AM 37.4 °F 29.3 °F 30.2 °F 75% 29.89 in 10.0 mi NW 12.7 mph 20.7 mph N/A   Overcast
5:55 AM 37.0 °F 29.3 °F 30.9 °F 79% 29.94 in 10.0 mi NW 11.5 mph - 0.00 in   Light Drizzle
6:55 AM 36.0 °F 29.6 °F 33.1 °F 89% 29.94 in 10.0 mi NNW 8.1 mph - 0.00 in   Light Drizzle
7:25 AM 35.6 °F 28.0 °F 33.8 °F 93% 29.90 in 9.0 mi NW 10.4 mph - 0.00 in Rain Light Rain
7:55 AM 36.0 °F 28.5 °F 32.0 °F 86% 29.96 in 10.0 mi NW 10.4 mph - 0.00 in   Light Drizzle
8:02 AM 35.6 °F 28.6 °F 33.8 °F 93% 29.91 in 10.0 mi NW 9.2 mph - 0.00 in   Light Drizzle
8:55 AM 36.0 °F 27.5 °F 32.0 °F 86% 29.96 in 10.0 mi NW 12.7 mph 19.6 mph 0.00 in   Overcast
9:55 AM 37.0 °F 27.4 °F 30.9 °F 79% 29.98 in 9.0 mi NW 17.3 mph 24.2 mph 0.00 in Snow Light Snow
10:55 AM 37.0 °F 27.7 °F 28.9 °F 73% 29.98 in 9.0 mi NW 16.1 mph 24.2 mph 0.00 in Snow Light Snow
11:55 AM 37.0 °F 28.9 °F 27.0 °F 67% 29.99 in 10.0 mi NW 12.7 mph 24.2 mph 0.00 in   Overcast
12:55 PM 37.9 °F 28.5 °F 26.1 °F 62% 29.99 in 10.0 mi NNW 17.3 mph 23.0 mph N/A   Overcast
1:55 PM 37.9 °F 29.2 °F 26.1 °F 62% 29.99 in 10.0 mi NNW 15.0 mph 21.9 mph N/A   Overcast
2:27 PM 37.4 °F 27.5 °F 24.8 °F 60% 29.94 in 10.0 mi NNW 18.4 mph 25.3 mph N/A   Overcast
2:55 PM 37.0 °F 28.9 °F 24.1 °F 59% 29.98 in 10.0 mi NW 12.7 mph 23.0 mph N/A   Mostly Cloudy
3:55 PM 37.0 °F 28.5 °F 23.0 °F 57% 29.99 in 10.0 mi NNW 13.8 mph 27.6 mph N/A   Mostly Cloudy
4:08 PM 37.4 °F 27.8 °F 23.0 °F 56% 29.95 in 10.0 mi NNW 17.3 mph 25.3 mph N/A   Mostly Cloudy
4:55 PM 37.0 °F 29.8 °F 23.0 °F 57% 30.01 in 10.0 mi NNW 10.4 mph - N/A   Mostly Cloudy
5:55 PM 35.1 °F 25.5 °F 24.1 °F 64% 30.04 in 10.0 mi NW 15.0 mph - N/A   Mostly Cloudy
6:55 PM 33.1 °F 24.4 °F 23.0 °F 66% 30.05 in 10.0 mi NNW 11.5 mph - N/A   Mostly Cloudy
7:55 PM 33.1 °F 26.1 °F 24.1 °F 70% 30.05 in 10.0 mi NNW 8.1 mph - N/A   Overcast
8:55 PM 33.1 °F 24.4 °F 24.1 °F 70% 30.07 in 10.0 mi NNW 11.5 mph 18.4 mph N/A   Overcast
9:55 PM 33.1 °F 24.9 °F 24.1 °F 70% 30.08 in 10.0 mi NNW 10.4 mph 16.1 mph N/A   Mostly Cloudy
10:55 PM 30.9 °F 22.8 °F 23.0 °F 72% 30.08 in 10.0 mi NNW 9.2 mph - N/A   Scattered Clouds
11:55 PM 30.0 °F 21.1 °F 23.0 °F 75% 30.09 in 10.0 mi NNW 10.4 mph - N/A   Partly Cloudy